Simultaneous Nadir Overpasses (SNOs) Predictions

Prediction of SNOs between GOES-16 and TERRA Satellite Orbit:

Table of predicted SNOs for the next 14.0 days since TLE Epoch: 4/6/2017
Index Date Time (GOES-16) GOES-16 Lat,Lon TERRA Lat,Lon Distance(km) Time Diff (sec)
1 04/08/2017 16:16:11 0.01, -89.50 -0.66, -86.23 371.82 80
2 04/09/2017 04:37:35 -0.01, -89.49 -0.44, -91.42 219.80 80
3 04/11/2017 04:22:44 -0.01, -89.51 0.24, -88.47 118.97 80
4 04/11/2017 16:43:59 0.01, -89.53 0.90, -93.62 465.26 80
5 04/13/2017 04:10:32 -0.01, -89.53 0.85, -85.51 457.97 80
6 04/13/2017 16:31:48 0.01, -89.55 0.22, -90.67 126.10 80
7 04/15/2017 16:22:16 0.01, -89.58 -0.40, -87.71 213.28 80
8 04/16/2017 04:43:40 -0.01, -89.58 -0.70, -92.90 377.36 80
9 04/18/2017 04:31:28 -0.01, -89.60 -0.07, -89.94 37.85 80
10 04/20/2017 04:16:36 -0.01, -89.63 0.56, -86.98 301.92 80
11 04/20/2017 16:37:52 0.01, -89.65 0.52, -92.14 282.63 80




NCC Satellite Simultaneous Nadir Overpasses (SNOs) Prediction Service
